User: anonymous   Login
Location: Maiden_LMO
(35.5760°N, 81.2120°W)
Time: 22:29:16
(UTC-05:00)
Language:

ADEOS II - Orbit

View from above orbital plane
View from above orbital plane
View from above satellite
View from above satellite

Ground track
Ground track

The orbit data is extracted from the following two-line orbital elements,

1 27597U 02056A   15060.52032020  .00000373  00000-0  16991-3 0  9991
2 27597 098.2826 059.6489 0000307 055.1200 105.9705 14.27018301635795
Epoch (UTC): 01 March 2015 12:29:15
Eccentricity: 0.0000307
inclination: 98.2826°
perigee height: 801 km
apogee height: 802 km
right ascension of ascending node: 59.6489°
argument of perigee: 55.1200°
revolutions per day: 14.27018301
mean anomaly at epoch: 105.9705°
orbit number at epoch: 63579

The dashed part of the orbit path shows where the satellite is in the earth's shadow,  

DLR